User: anonymous   Login
Location: Unspecified
(0.0000°N, 0.0000°E)
Time: 10:35:59
(UTC+00:00)
Language:

GOSAT - Orbit

View from above orbital plane
View from above orbital plane
View from above satellite
View from above satellite

Ground track
Ground track

The orbit data is extracted from the following two-line orbital elements,

1 33492U 09002A   16037.86131648 -.00000039  00000-0  16498-5 0  9992
2 33492  98.0869 148.6890 0001469  82.9953 277.1414 14.67539063377035
Epoch (UTC): 06 February 2016 20:40:17
Eccentricity: 0.0001469
inclination: 98.0869°
perigee height: 668 km
apogee height: 670 km
right ascension of ascending node: 148.6890°
argument of perigee: 82.9953°
revolutions per day: 14.67539063
mean anomaly at epoch: 277.1414°
orbit number at epoch: 37703

The dashed part of the orbit path shows where the satellite is in the earth's shadow,  

DLR